ZKEYG NZCH-NZCH

Flight info

Callsign ZKEYG
Flight time N/A
Altitude 3000
Route NZCH LAKE COLERIDGE NZCH
Aircraft PA38/L-VGD/N

Departure

Time 2026-05-05 03:04
Airport Christchurch International Airport (NZCH)

Arrival

Time N/A
Airport Christchurch International Airport (NZCH)
Time Latitude Longitude Altitude Speed Heading
2026-05-05 02:51 -43.48363 172.53061 116 ft 0 kts 309°
2026-05-05 02:59 -43.48360 172.53056 116 ft 0 kts 315°
2026-05-05 03:00 -43.48356 172.53044 116 ft 5 kts 267°
2026-05-05 03:00 -43.48386 172.53007 115 ft 8 kts 217°
2026-05-05 03:00 -43.48428 172.52958 116 ft 9 kts 218°
2026-05-05 03:00 -43.48475 172.52904 116 ft 9 kts 221°
2026-05-05 03:01 -43.48514 172.52905 116 ft 8 kts 132°
2026-05-05 03:01 -43.48554 172.52966 116 ft 10 kts 129°
2026-05-05 03:01 -43.48586 172.53020 114 ft 9 kts 132°
2026-05-05 03:01 -43.48585 172.53088 115 ft 1 kts 38°
2026-05-05 03:03 -43.48533 172.53148 113 ft 32 kts 40°
2026-05-05 03:03 -43.48270 172.53465 189 ft 57 kts 37°
2026-05-05 03:04 -43.47964 172.53816 364 ft 56 kts 34°
2026-05-05 03:04 -43.47652 172.54146 544 ft 58 kts 33°
2026-05-05 03:04 -43.47274 172.54180 689 ft 68 kts 319°
2026-05-05 03:04 -43.46946 172.53715 880 ft 71 kts 320°
2026-05-05 03:05 -43.46828 172.53002 891 ft 93 kts 246°
2026-05-05 03:05 -43.47248 172.52275 881 ft 99 kts 231°
2026-05-05 03:05 -43.47703 172.51544 874 ft 101 kts 229°
2026-05-05 03:05 -43.48158 172.50804 866 ft 101 kts 229°
2026-05-05 03:06 -43.48643 172.50100 851 ft 101 kts 225°
2026-05-05 03:06 -43.49146 172.49426 872 ft 101 kts 221°
2026-05-05 03:06 -43.49681 172.48810 873 ft 102 kts 219°
2026-05-05 03:06 -43.50241 172.48215 889 ft 102 kts 214°
2026-05-05 03:07 -43.50814 172.47632 946 ft 102 kts 219°
2026-05-05 03:07 -43.51355 172.47010 1061 ft 101 kts 219°
2026-05-05 03:07 -43.51886 172.46378 1185 ft 100 kts 221°
2026-05-05 03:07 -43.52403 172.45745 1312 ft 102 kts 222°
2026-05-05 03:08 -43.52935 172.45087 1287 ft 103 kts 221°
2026-05-05 03:08 -43.53437 172.44394 1275 ft 102 kts 234°
2026-05-05 03:08 -43.53757 172.43542 1268 ft 99 kts 248°
2026-05-05 03:08 -43.53963 172.42653 1260 ft 99 kts 255°
2026-05-05 03:09 -43.54145 172.41753 1309 ft 92 kts 265°
2026-05-05 03:09 -43.54074 172.40885 1326 ft 92 kts 283°
2026-05-05 03:09 -43.53970 172.40000 1348 ft 94 kts 285°
2026-05-05 03:09 -43.53817 172.39112 1349 ft 96 kts 289°
2026-05-05 03:10 -43.53648 172.38206 1345 ft 98 kts 287°
2026-05-05 03:10 -43.53471 172.37302 1358 ft 98 kts 290°
2026-05-05 03:10 -43.53267 172.36400 1357 ft 99 kts 290°
2026-05-05 03:10 -43.53072 172.35507 1371 ft 99 kts 293°
2026-05-05 03:11 -43.52831 172.34625 1384 ft 98 kts 297°
2026-05-05 03:11 -43.52555 172.33771 1402 ft 97 kts 300°
2026-05-05 03:11 -43.52243 172.32949 1400 ft 97 kts 304°
2026-05-05 03:11 -43.51896 172.32154 1393 ft 98 kts 308°
2026-05-05 03:12 -43.51537 172.31356 1390 ft 96 kts 308°
2026-05-05 03:12 -43.51155 172.30626 1388 ft 95 kts 315°
2026-05-05 03:12 -43.50753 172.29909 1393 ft 93 kts 314°
2026-05-05 03:12 -43.50343 172.29211 1386 ft 94 kts 313°
2026-05-05 03:13 -43.49932 172.28520 1384 ft 95 kts 311°
2026-05-05 03:13 -43.49610 172.27741 1393 ft 95 kts 293°
2026-05-05 03:13 -43.49568 172.26847 1414 ft 94 kts 262°
2026-05-05 03:13 -43.49702 172.25961 1435 ft 95 kts 256°
2026-05-05 03:14 -43.49884 172.25086 1521 ft 94 kts 259°
2026-05-05 03:14 -43.50053 172.24233 1703 ft 91 kts 256°
2026-05-05 03:14 -43.50235 172.23402 1878 ft 90 kts 259°
2026-05-05 03:14 -43.50396 172.22564 2040 ft 91 kts 258°
2026-05-05 03:15 -43.50552 172.21722 2062 ft 93 kts 262°
2026-05-05 03:15 -43.50692 172.20838 2071 ft 95 kts 262°
2026-05-05 03:15 -43.50810 172.19939 2075 ft 96 kts 264°
2026-05-05 03:15 -43.50970 172.19042 2076 ft 96 kts 261°
2026-05-05 03:16 -43.51114 172.18146 2088 ft 96 kts 261°
2026-05-05 03:16 -43.51249 172.17245 2081 ft 97 kts 261°
2026-05-05 03:16 -43.51402 172.16332 2100 ft 98 kts 261°
2026-05-05 03:16 -43.51557 172.15412 2111 ft 99 kts 262°
2026-05-05 03:17 -43.51694 172.14503 2118 ft 98 kts 263°
2026-05-05 03:17 -43.51841 172.13584 2123 ft 98 kts 260°
2026-05-05 03:17 -43.51990 172.12670 2115 ft 98 kts 260°
2026-05-05 03:17 -43.52150 172.11760 2106 ft 97 kts 260°
2026-05-05 03:18 -43.52347 172.10876 2098 ft 98 kts 240°
2026-05-05 03:18 -43.52917 172.10375 2086 ft 102 kts 190°
2026-05-05 03:18 -43.53579 172.10600 2098 ft 99 kts 144°
2026-05-05 03:18 -43.54166 172.11114 2102 ft 100 kts 144°
2026-05-05 03:19 -43.55316 172.12208 2115 ft 102 kts 141°
2026-05-05 03:19 -43.55900 172.12769 2123 ft 103 kts 143°
2026-05-05 03:19 -43.56488 172.13315 2140 ft 101 kts 143°
2026-05-05 03:20 -43.57072 172.13853 2139 ft 101 kts 143°
2026-05-05 03:20 -43.57664 172.14376 2134 ft 101 kts 144°
2026-05-05 03:20 -43.58259 172.14892 2129 ft 101 kts 144°
2026-05-05 03:20 -43.58857 172.15395 2132 ft 100 kts 145°
2026-05-05 03:21 -43.59458 172.15884 2129 ft 100 kts 147°
2026-05-05 03:21 -43.60055 172.16357 2135 ft 100 kts 147°
2026-05-05 03:21 -43.60670 172.16807 2135 ft 100 kts 151°
2026-05-05 03:21 -43.61294 172.17232 2138 ft 100 kts 150°
2026-05-05 03:22 -43.61923 172.17653 2150 ft 101 kts 152°
2026-05-05 03:22 -43.62542 172.18095 2160 ft 101 kts 146°
2026-05-05 03:22 -43.63094 172.18680 2164 ft 100 kts 131°
2026-05-05 03:22 -43.63524 172.19425 2159 ft 99 kts 120°
2026-05-05 03:23 -43.63891 172.20227 2155 ft 98 kts 118°
2026-05-05 03:23 -43.64248 172.21029 2156 ft 98 kts 117°
2026-05-05 03:23 -43.64597 172.21818 2166 ft 98 kts 116°
2026-05-05 03:23 -43.64951 172.22623 2178 ft 98 kts 117°
2026-05-05 03:24 -43.65310 172.23423 2165 ft 98 kts 117°
2026-05-05 03:24 -43.65642 172.24245 2159 ft 97 kts 112°
2026-05-05 03:24 -43.65949 172.25080 2163 ft 98 kts 113°
2026-05-05 03:24 -43.66267 172.25916 2177 ft 98 kts 114°
2026-05-05 03:25 -43.66589 172.26745 2170 ft 98 kts 114°
2026-05-05 03:25 -43.66899 172.27583 2166 ft 98 kts 112°
2026-05-05 03:25 -43.67198 172.28406 2157 ft 98 kts 111°
2026-05-05 03:25 -43.67493 172.29252 2160 ft 98 kts 110°
2026-05-05 03:26 -43.67781 172.30101 2159 ft 98 kts 111°
2026-05-05 03:26 -43.68070 172.30948 2162 ft 97 kts 110°
2026-05-05 03:26 -43.68339 172.31801 2159 ft 97 kts 108°
2026-05-05 03:26 -43.68598 172.32654 2164 ft 96 kts 107°
2026-05-05 03:27 -43.68835 172.33514 2181 ft 95 kts 104°
2026-05-05 03:27 -43.69039 172.34382 2187 ft 96 kts 104°
2026-05-05 03:27 -43.69264 172.35249 2196 ft 96 kts 107°
2026-05-05 03:27 -43.69532 172.36098 2201 ft 97 kts 110°
2026-05-05 03:28 -43.69794 172.36940 2204 ft 97 kts 108°
2026-05-05 03:28 -43.70059 172.37795 2208 ft 97 kts 110°
2026-05-05 03:28 -43.70393 172.38612 2214 ft 98 kts 118°
2026-05-05 03:28 -43.70776 172.39397 2209 ft 99 kts 121°
2026-05-05 03:29 -43.71155 172.40181 2201 ft 99 kts 120°
2026-05-05 03:29 -43.71572 172.40930 2210 ft 98 kts 129°
2026-05-05 03:29 -43.72103 172.41560 2194 ft 104 kts 142°
2026-05-05 03:29 -43.72700 172.42109 2196 ft 103 kts 142°
2026-05-05 03:30 -43.73282 172.42657 2187 ft 103 kts 144°
2026-05-05 03:30 -43.73899 172.43163 2165 ft 104 kts 148°
2026-05-05 03:30 -43.74532 172.43638 2153 ft 104 kts 148°
2026-05-05 03:30 -43.75170 172.44120 2153 ft 104 kts 146°
2026-05-05 03:31 -43.75794 172.44621 2155 ft 104 kts 144°
2026-05-05 03:31 -43.76390 172.45150 2121 ft 101 kts 143°
2026-05-05 03:31 -43.76984 172.45649 2051 ft 101 kts 147°
2026-05-05 03:31 -43.77602 172.46126 1947 ft 102 kts 148°
2026-05-05 03:32 -43.78178 172.46641 1887 ft 99 kts 139°
2026-05-05 03:32 -43.78720 172.47238 1803 ft 101 kts 139°
2026-05-05 03:32 -43.79260 172.47850 1746 ft 99 kts 136°
2026-05-05 03:32 -43.79792 172.48448 1680 ft 99 kts 140°
2026-05-05 03:33 -43.80337 172.49029 1616 ft 98 kts 140°
2026-05-05 03:33 -43.80887 172.49609 1534 ft 100 kts 141°
2026-05-05 03:33 -43.81440 172.50176 1503 ft 99 kts 141°
2026-05-05 03:33 -43.81991 172.50751 1456 ft 101 kts 139°
2026-05-05 03:34 -43.82548 172.51340 1421 ft 100 kts 141°
2026-05-05 03:34 -43.83101 172.51895 1390 ft 100 kts 140°
2026-05-05 03:34 -43.83644 172.52475 1386 ft 99 kts 139°
2026-05-05 03:34 -43.84134 172.53133 1379 ft 98 kts 125°
2026-05-05 03:35 -43.84354 172.53943 1334 ft 87 kts 84°
2026-05-05 03:35 -43.84068 172.54658 1178 ft 89 kts 39°
2026-05-05 03:35 -43.83519 172.55102 1024 ft 91 kts 15°
2026-05-05 03:35 -43.82924 172.54866 1002 ft 94 kts 317°
2026-05-05 03:36 -43.82578 172.54084 978 ft 97 kts 298°
2026-05-05 03:36 -43.82339 172.53218 964 ft 98 kts 276°
2026-05-05 03:36 -43.82659 172.52442 972 ft 96 kts 221°
2026-05-05 03:36 -43.83140 172.51859 959 ft 90 kts 220°
2026-05-05 03:37 -43.83617 172.51327 902 ft 86 kts 212°
2026-05-05 03:37 -43.84149 172.51481 706 ft 90 kts 126°
2026-05-05 03:37 -43.84286 172.52299 563 ft 88 kts 83°
2026-05-05 03:37 -43.84012 172.52886 417 ft 69 kts 37°
2026-05-05 03:38 -43.83632 172.53263 238 ft 66 kts 34°
2026-05-05 03:38 -43.83276 172.53625 58 ft 58 kts 37°
2026-05-05 03:38 -43.83037 172.53865 38 ft 19 kts 35°
2026-05-05 03:38 -43.82993 172.53908 37 ft 3 kts 32°
2026-05-05 03:39 -43.82983 172.53923 39 ft 0 kts 60°